sat.trackr.live / text

‹ back to catalog

SES-11 (ECHOSTAR 105)

NORAD 42967 · 2017-063A

PAYLOAD ACTIVE UNKNOWN

§ Identity

Operator
Country
SES
Launch date
2017-10-11
Launch site
AFETR
Launch vehicle
Mass (kg)
RCS (m²)

Purposes: comms

External: N2YO · Heavens-Above · Gunter

§ Orbital elements

Epoch: 2026-09-20T03:57:02.628000Z

Period
1,436.09 min
Inclination
0.0370°
Eccentricity
0.0002676
Mean motion
1.00272392 rev/d
Perigee alt
35,775.1 km
Apogee alt
35,797.7 km
Semi-major
42,164.6 km
B*
0.0000e+0
RAAN
328.4477°
Arg perigee
190.8014°
Mean anomaly
154.1344°
Rev number
3,267

§ Raw data

SES-11 (ECHOSTAR 105)1 42967U 17063A   26263.16461375 -.00000094  00000+0  00000+0 0  99992 42967   0.0370 328.4477 0002676 190.8014 154.1344  1.00272392 32675

JSON: /api/v1/satellites/42967 · /tle

For live sub-satellite position, see the globe view (requires WebGL).

§ Visibility from observer

Set your observer location to see the next 7 days of passes ≥ 10°. The values pass through the URL so the page stays shareable.

No JS? Fill the form by hand. The geolocation button needs JavaScript.